LANDSAT 4 1 13367U 82072A 10038.89680766 .00000666 00000-0 55437-4 0 3474 2 13367 98.1881 331.8619 0018349 271.5452 88.3703 15.02308061479903 TDRS 1 1 13969U 83026B 10039.40942491 -.00000310 00000-0 10000-3 0 230 2 13969 13.5138 7.3985 0031547 250.4547 331.6279 1.00271553 71362 LANDSAT 5 1 14780U 84021A 10040.10481730 .00000059 00000-0 23212-4 0 5000 2 14780 98.2141 109.8813 0003881 94.8262 265.3383 14.57108717379884 ERBS 1 15354U 84108B 10039.97573338 -.00000155 00000-0 74277-5 0 3041 2 15354 56.9887 257.5966 0022201 131.4530 228.8389 15.15980749387969 TDRS 3 1 19548U 88091B 10039.30940499 -.00000302 00000-0 10000-3 0 4348 2 19548 12.2829 37.4906 0036517 312.5136 210.5357 1.00281614 65518 TDRS 4 1 19883U 89021B 10039.99511171 -.00000291 00000-0 10000-3 0 7474 2 19883 11.0158 49.0962 0007258 314.7386 87.3537 1.00279627249092 HST 1 20580U 90037B 10039.31536863 .00000423 00000-0 19571-4 0 5141 2 20580 28.4702 1.1182 0003300 268.1978 91.8283 15.00889866885362 TDRS 5 1 21639U 91054B 10038.65331498 .00000093 00000-0 10000-3 0 5836 2 21639 10.3872 52.8055 0018203 314.6347 197.6157 1.00272802 67822 UARS 1 21701U 91063B 10040.18418055 .00008617 00000-0 10902-3 0 8869 2 21701 56.9727 43.1487 0063318 277.0309 82.3554 15.58109154 16121 TOPEX/POSEIDON 1 22076U 92052A 10039.65726500 -.00000038 00000-0 10000-3 0 4776 2 22076 66.0433 299.5287 0007198 268.9746 91.0446 12.80949940818535 TDRS 6 1 22314U 93003B 10038.38827010 .00000080 00000-0 10000-3 0 6188 2 22314 9.7465 55.8125 0009459 318.0388 91.8342 1.00269456 62546 TDRS 7 1 23613U 95035B 10039.69016736 -.00000202 00000-0 10000-3 0 6725 2 23613 11.5311 45.5878 0033362 313.0409 113.3926 1.00274989 53365 RXTE (XTE) 1 23757U 95074A 10039.39936609 .00001611 00000-0 41185-4 0 563 2 23757 22.9807 151.7008 0008373 70.8849 289.2558 15.27628858781932 TRMM 1 25063U 97074A 10039.92940906 .00004953 00000-0 70186-4 0 2793 2 25063 34.9640 212.6294 0000837 276.3611 83.7026 15.55767060696991 KIKU-7 (ETS-VII) 1 25064U 97074B 10039.29365304 .00001054 00000-0 42058-4 0 49 2 25064 34.9616 341.1549 0004633 234.7455 125.2827 15.25462865677080 ISS (ZARYA) 1 25544U 98067A 10040.38873190 .00019275 00000-0 12567-3 0 5505 2 25544 51.6454 166.8195 0010777 303.5541 109.5214 15.75852402643347 LANDSAT 7 1 25682U 99020A 10040.13979866 -.00000028 00000-0 39451-5 0 5980 2 25682 98.2256 110.1007 0000385 82.2189 277.9051 14.57099496575588 FUSE 1 1 25791U 99035A 10039.95457355 .00000202 00000-0 65851-5 0 6278 2 25791 24.9865 316.4395 0010622 239.5579 120.3887 14.41811443560609 TERRA 1 25994U 99068A 10040.08894322 .00000012 00000-0 12604-4 0 4931 2 25994 98.2034 116.5674 0001464 69.1904 290.9456 14.57106631539658 TDRS 8 1 26388U 00034A 10039.68186678 -.00000227 00000-0 10000-3 0 1063 2 26388 1.9456 97.4019 0004034 206.9270 168.8030 1.00265068 35306 EO-1 1 26619U 00075A 10040.09822149 .00000927 00000-0 19391-3 0 8618 2 26619 98.1373 109.0699 0008880 286.8317 73.1965 14.62075315490884 TIMED 1 26998U 01055B 10039.47535252 .00000076 00000-0 13375-4 0 4958 2 26998 74.0712 242.6963 0001929 267.7990 92.2957 14.84129287442572 TDRS 9 1 27389U 02011A 10037.22537106 -.00000285 00000-0 00000+0 0 4912 2 27389 1.8888 219.0278 0014834 144.8544 151.3329 1.00273179 30527 AQUA 1 27424U 02022A 10040.04142233 .00000076 00000-0 26823-4 0 5566 2 27424 98.2054 343.4448 0001631 97.7525 262.3853 14.57113898413256 TDRS 10 1 27566U 02055A 10037.89014007 -.00000269 00000-0 10000-3 0 2173 2 27566 0.5650 294.0529 0005710 325.6246 156.8744 1.00272099 26368 SORCE 1 27651U 03004A 10039.50067296 .00000041 00000-0 20710-4 0 1201 2 27651 39.9962 89.9666 0025245 190.5307 169.4949 14.82255946381367 GALEX 1 27783U 03017A 10039.72419692 .00000435 00000-0 67830-4 0 8664 2 27783 28.9980 259.5339 0004205 255.7144 104.3048 14.59795110362373 GP-B 1 28230U 04014A 10038.42380618 .00000020 00000-0 62985-6 0 7084 2 28230 89.9395 156.3459 0003301 66.2685 293.8877 14.76014421312474 AURA 1 28376U 04026A 10039.42861650 .00000078 00000-0 27272-4 0 7192 2 28376 98.2038 344.9186 0001352 96.4575 263.6777 14.57109440296213 SWIFT 1 28485U 04047A 10040.04047345 .00000726 00000-0 30324-4 0 5036 2 28485 20.5590 13.4385 0014563 113.8857 246.3121 14.92651188285106 THEMIS A 1 30580U 07004A 10040.04166667 -.00000346 00000-0 10000-3 0 6386 2 30580 8.8658 230.5423 7811680 145.5127 352.7783 0.96581445 10286 THEMIS B 1 30581U 07004B 10030.00000000 -.00013337 00000-0 00000+0 0 2813 2 30581 63.2411 335.3227 7685243 353.0753 100.6405 0.09033664 6410 THEMIS C 1 30582U 07004C 10030.00000000 -.00004174 00000-0 00000+0 0 4589 2 30582 6.0150 347.7300 9224903 356.1474 32.1156 0.15024768 5674 THEMIS D 1 30797U 07004D 10039.91666667 -.00000224 00000-0 00000+0 0 7948 2 30797 3.8398 227.6327 7570771 151.2361 344.8209 1.00264846 10126 THEMIS E 1 30798U 07004E 10039.91666667 -.00000220 00000-0 00000+0 0 8137 2 30798 3.7948 232.8389 7429636 146.0964 342.9423 1.00272983 10260 C/NOFS 1 32765U 08017A 10038.86267800 .00002547 00000-0 82824-4 0 4786 2 32765 13.0012 234.1186 0311273 35.1571 326.8846 14.82152165 98320 AIM 1 31304U 07015A 10039.33180544 .00000020 00000-0 75263-5 0 9535 2 31304 97.8005 142.7992 0012241 152.9601 207.2254 14.92313116152012 FGRST (GLAST) 1 33053U 08029A 10039.50815034 .00000278 00000-0 00000+0 0 4353 2 33053 25.5805 193.2820 0013796 325.9865 33.9818 15.05000328 91523 WISE 1 36119U 09071A 10040.20230839 .00000750 00000-0 46952-4 0 486 2 36119 97.5064 46.6256 0002123 351.7992 8.3204 15.12362167 8555